Powrót do katalogu

NIMBUS 2 DEB

LostSSO
NORAD 28614·DEBRIS·🇺🇸 United States

Wystrzelony May 15, 1966 z Vandenberg Space Force Base

Loading…

Następne Przeloty (najbliższe 24 godziny)

TLE

NieaktualneSource: Space-Track

Epoka: Jan 25, 2014, 12:13 UTC

1 28614U 66040AD  14025.50939937 -.00000329  00000-0 -49682-3 0  9992
2 28614 100.3417 128.0335 0037753 318.0196 104.4689 13.42437531478480

Śledź NIMBUS 2 DEB w czasie rzeczywistym z AllMySat

Download on the App Store